EW7468 Weather Reports


time (UTC)temp
F
wind
direction
speed
knots
gust
knots
rain 1hr
in
rain 24hr
in
rain mn
in
humidity
%
barometer
mb
20260510220005 84 260 0.0 0.0 0.00 0.00 0.01 86 1013.6
20260510215004 84 298 0.0 0.0 0.00 0.00 0.01 87 1013.6
20260510213004 84 277 0.0 4.3 0.00 0.00 0.01 86 1013.6
20260510212004 83 254 0.0 0.9 0.00 0.00 0.01 86 1013.5
20260510211004 83 249 0.0 0.9 0.00 0.00 0.01 87 1013.6
20260510210005 84 293 0.0 3.5 0.00 0.00 0.01 86 1013.7
20260510205004 84 248 0.0 6.1 0.00 0.00 0.01 86 1013.8
20260510204005 84 284 0.0 2.6 0.00 0.00 0.01 86 1013.8
20260510203004 84 292 0.0 5.2 0.00 0.00 0.01 86 1013.9
20260510202004 84 291 0.0 7.0 0.00 0.00 0.01 86 1013.8
20260510201005 84 335 0.0 8.7 0.00 0.00 0.01 87 1013.8
20260510200004 83 298 0.0 9.6 0.00 0.00 0.01 86 1013.6
20260510194005 84 283 7.8 11.3 0.00 0.00 0.01 85 1013.9
20260510193004 84 264 5.2 9.6 0.00 0.00 0.01 86 1013.9
20260510192004 84 245 0.0 8.7 0.00 0.00 0.01 87 1013.9
20260510185004 84 237 2.6 12.2 0.00 0.00 0.01 86 1014.1
20260510184004 84 246 0.0 10.4 0.00 0.00 0.01 85 1014.2
20260510183004 84 234 0.9 9.6 0.00 0.00 0.01 85 1014.1
20260510182004 84 220 0.0 12.2 0.00 0.00 0.01 85 1014.2
20260510181004 85 275 2.6 12.2 0.00 0.00 0.01 85 1014.3
20260510180004 84 252 0.9 12.2 0.00 0.00 0.01 85 1014.4
20260510175004 84 242 5.2 13.0 0.00 0.00 0.01 85 1014.4
20260510174004 84 242 8.7 12.2 0.00 0.00 0.01 85 1014.4
20260510173004 84 246 7.0 13.9 0.00 0.00 0.01 86 1014.5
20260510172004 84 232 2.6 13.9 0.00 0.00 0.01 85 1014.6
20260510171004 84 250 9.6 13.9 0.00 0.00 0.01 84 1014.7
20260510165005 84 235 5.2 13.9 0.00 0.00 0.01 85 1014.7
20260510164004 84 236 7.8 13.0 0.00 0.00 0.01 86 1014.7
20260510163004 84 209 7.8 13.0 0.00 0.00 0.01 86 1014.7
20260510162004 84 251 10.4 14.8 0.00 0.00 0.01 86 1014.5
20260510161004 84 218 4.3 14.8 0.00 0.00 0.01 87 1014.6
20260510160004 84 236 6.1 14.8 0.00 0.00 0.01 86 1014.6
20260510155004 84 226 1.7 14.8 0.00 0.00 0.01 87 1014.8
20260510153004 84 237 8.7 13.0 0.00 0.00 0.01 86 1014.6
20260510152004 84 229 3.5 13.0 0.00 0.00 0.01 86 1014.6
20260510151004 84 235 7.8 13.0 0.00 0.00 0.01 86 1014.6
20260510144005 84 226 0.9 9.6 0.00 0.00 0.01 84 1014.5
20260510143004 84 235 0.0 7.0 0.00 0.00 0.01 84 1014.6
20260510142004 84 244 1.7 8.7 0.00 0.00 0.01 84 1014.5
20260510141004 84 225 0.0 7.0 0.00 0.00 0.01 84 1014.4
20260510140006 84 225 0.0 3.5 0.00 0.00 0.01 84 1014.3
20260510134004 84 229 0.9 9.6 0.00 0.00 0.01 85 1014.1
20260510133004 83 186 0.0 8.7 0.00 0.00 0.01 85 1014.0
20260510132005 83 194 0.0 7.8 0.00 0.00 0.01 85 1013.9
20260510130004 82 208 0.0 5.2 0.00 0.00 0.01 86 1013.9
20260510125004 81 165 0.0 3.5 0.00 0.00 0.01 86 1013.7
20260510124005 81 173 0.0 4.3 0.00 0.00 0.01 87 1013.6
20260510123004 80 165 0.0 0.9 0.00 0.00 0.01 87 1013.7
20260510122004 79 184 0.0 6.1 0.00 0.00 0.01 88 1013.7
20260510121004 79 140 0.0 0.0 0.00 0.00 0.01 88 1013.5
20260510115004 78 130 0.0 0.9 0.00 0.00 0.01 89 1013.2
20260510114004 77 140 0.0 0.9 0.00 0.00 0.01 89 1013.1
20260510113004 77 142 0.0 0.9 0.00 0.00 0.01 89 1012.9
20260510111004 77 103 0.0 0.0 0.00 0.00 0.01 90 1012.6
20260510110005 77 112 0.0 0.0 0.00 0.00 0.01 90 1012.5
20260510105004 77 111 0.0 0.0 0.00 0.00 0.01 90 1012.4
20260510104005 77 124 0.0 0.0 0.00 0.00 0.01 90 1012.2
20260510103004 77 125 0.0 0.0 0.00 0.00 0.00 90 1012.2
20260510102004 77 125 0.0 0.0 0.00 0.00 0.00 90 1012.0
20260510101005 77 125 0.0 0.0 0.00 0.00 0.00 90 1011.8
20260510100006 77 126 0.0 0.0 0.00 0.00 0.00 90 1011.6
20260510094004 78 128 0.0 0.0 0.00 0.00 0.00 90 1011.4
20260510093004 77 129 0.0 0.0 0.00 0.00 0.00 90 1011.5
20260510092004 78 129 0.0 0.0 0.00 0.00 0.00 90 1011.1
20260510091004 78 130 0.0 0.0 0.00 0.00 0.00 90 1011.2
20260510090004 78 129 0.0 0.0 0.00 0.00 0.00 90 1011.1
20260510085004 78 128 0.0 0.0 0.00 0.00 0.00 90 1010.9
20260510083004 78 130 0.0 0.0 0.00 0.00 0.00 90 1010.6
20260510080005 79 161 0.0 0.0 0.00 0.00 0.00 89 1010.7
20260510075004 79 149 0.0 0.0 0.00 0.00 0.00 89 1011.0
20260510074004 79 163 0.0 0.0 0.00 0.00 0.00 89 1010.9
20260510073004 80 157 0.0 0.0 0.00 0.00 0.00 89 1010.9
20260510072004 80 165 0.0 0.0 0.00 0.00 0.00 88 1011.1
20260510071005 80 170 0.0 0.0 0.00 0.00 0.00 88 1011.2
20260510070005 80 173 0.0 0.0 0.00 0.00 0.00 88 1011.2
20260510065004 80 173 0.0 0.0 0.00 0.00 0.00 88 1011.3
20260510063004 80 219 0.0 0.0 0.00 0.00 0.00 88 1011.7
20260510062005 80 219 0.0 0.0 0.00 0.00 0.00 88 1011.7
20260510061004 80 221 0.0 0.0 0.00 0.00 0.00 88 1011.8
20260510060004 80 223 0.0 0.0 0.00 0.00 0.00 88 1011.9
20260510055004 80 226 0.0 0.0 0.00 0.00 0.00 88 1012.1
20260510054005 80 217 0.0 0.0 0.00 0.00 0.00 88 1012.2
20260510053004 80 218 0.0 0.0 0.00 0.00 0.00 88 1012.4
20260510052004 80 244 0.0 0.0 0.00 0.00 0.00 88 1012.4
20260510051004 80 246 0.0 0.0 0.00 0.00 0.00 87 1012.5
20260510050005 80 248 0.0 0.0 0.00 0.00 0.00 87 1012.6
20260510045005 80 254 0.0 0.0 0.00 0.00 0.00 87 1012.5
20260510044004 80 256 0.0 0.0 0.00 0.00 0.00 87 1012.7
20260510043004 80 257 0.0 0.0 0.00 0.00 0.00 87 1012.7
20260510042004 80 259 0.0 0.0 0.00 0.00 0.00 86 1012.7
20260510041004 80 263 0.0 0.0 0.00 0.00 0.00 86 1012.8
20260510040006 80 267 0.0 0.0 0.00 0.00 0.00 86 1012.7
20260510035004 80 232 0.0 0.9 0.00 0.00 0.01 86 1012.7
20260510033004 80 259 0.0 0.0 0.00 0.00 0.01 86 1012.6
20260510032004 79 229 0.0 0.0 0.00 0.00 0.01 87 1012.5
20260510031004 79 302 0.0 0.0 0.00 0.00 0.01 88 1012.4
20260510030004 80 302 0.0 0.0 0.00 0.00 0.01 88 1012.3
20260510025004 80 302 0.0 0.0 0.00 0.00 0.01 88 1012.2
20260510022004 80 302 0.0 0.0 0.00 0.00 0.01 88 1012.2
20260510021004 80 302 0.0 0.0 0.00 0.00 0.01 88 1012.3
20260510020005 80 302 0.0 0.0 0.00 0.00 0.01 88 1012.2
20260510015004 80 302 0.0 0.0 0.00 0.00 0.01 88 1012.2
20260510014004 80 302 0.0 0.0 0.00 0.00 0.01 88 1012.1
20260510013004 80 302 0.0 0.0 0.00 0.00 0.01 88 1012.1
20260510012005 80 302 0.0 0.0 0.00 0.00 0.01 88 1012.0
20260510010005 80 309 0.0 0.0 0.00 0.00 0.01 88 1011.6
20260510005004 80 326 0.0 0.0 0.00 0.00 0.01 88 1011.5
20260510004004 80 323 0.0 0.0 0.00 0.00 0.01 88 1011.4
20260510002005 80 293 0.0 0.0 0.00 0.00 0.01 88 1011.3
20260510000006 80 257 0.0 0.0 0.00 0.00 0.01 88 1011.0
20260509235004 79 259 0.0 0.0 0.00 0.00 0.01 88 1010.9
20260509234004 79 259 0.0 0.9 0.00 0.00 0.01 88 1010.7
20260509233004 79 248 0.0 12.2 0.00 0.00 0.01 87 1010.8
20260509231004 81 238 0.0 10.4 0.00 0.00 0.00 86 1010.7
20260509230005 81 245 6.1 11.3 0.00 0.00 0.00 85 1010.7
20260509225004 81 233 0.0 9.6 0.00 0.00 0.00 85 1010.5
20260509224004 81 224 6.1 12.2 0.00 0.00 0.00 84 1010.6
20260509223005 82 241 9.6 12.2 0.00 0.00 0.00 85 1010.5
20260509222004 82 224 3.5 10.4 0.00 0.00 0.00 84 1010.4
20260509221005 82 232 3.5 10.4 0.00 0.00 0.00 84 1010.3